Погода в Оржице

Украина / Полтавская область     49°47′36″N   32°41′53″E
темп.,
°C
ветер,
м/с
пор.,
м/с
влажн.,
%
обл.,
%
осадки,
мм/ч
давл.,
гПа
погр.,
м
7 мая, пт
пт700:00+7юз35965 0.0 101391
03:00+6зсз3383100 0.0 101440
06:00+6з22802 0.0 101411
09:00+12ююз1160100 0.0 1015337
12:00+16ююз5746100 0.0 10151715
15:00+17ю6846100 0.0 10131936
18:00+14ю51162100 0.0 1011373
21:00+13ю51283100 1.0 1010460
8 мая, сб
сб800:00+12ююз51386100 2.9 1009622
03:00+12ю61492100 6.8 1007578
06:00+11ююз51095100 2.6 1005456
09:00+12зюз5896100 5.6 1007473
12:00+9зсз81289100 0.8 1010562
15:00+10зсз91172100 0.8 10121188
18:00+10зсз9136696 0.0 10131398
21:00+6зсз7138391 0.0 1015835
9 мая, вс
вс900:00+5зсз512835 0.0 1017542
03:00+5зсз613880 0.0 1019420
06:00+4сз613880 0.0 1020411
09:00+9сз69650 0.0 1022908
12:00+12сз8115377 0.0 10222122
15:00+12сз8105437 0.1 10242030
18:00+12сз685913 0.2 10241656
21:00+7сз35764 0.3 102770
10 мая, пн
пн1000:00+6ссз33795 0.0 102728
03:00+5с227418 0.0 102819
06:00+5с33745 0.0 102940
09:00+11с35580 0.0 1029509
12:00+14с56450 0.0 10281616
15:00+15с78455 0.0 10261834
18:00+15ссв695728 0.0 10251704
21:00+9с4107640 0.0 1025190
11 мая, вт
вт1100:00+10с5126999 0.0 1024401
03:00+9с5137193 0.0 1023367
06:00+8с5118099 0.0 1022274
09:00+13ссв610730 0.0 1021483
12:00+19ссв710665 0.0 1020931
15:00+19св7117095 0.3 10191169
18:00+15всв711761 1.1 10211225
21:00+10в512730 1.1 1022374